GSAT0212 (GALILEO 16) (41860 NORAD) Tracking and Keplerian Element Data

This shows tracking and keplerian element data for the satellite.

Feedback or suggestion? Click here.




ElementValue
Catalog41860
NameGSAT0212 (GALILEO 16)
Epoch Orbit1405
Epoch Day50.36340211
Epoch Year2019
RAAN175.2957
Inclination54.5932
Eccentricity0.0002622
Argument of Perigee323.4731
Mean Anonmoly36.4577
Mean Motion1.70473656
Decay Rate-2E-08
L11 41860U 16069B 19050.36340211 -.00000002 00000-0 00000+0 0 9998
L22 41860 54.5932 175.2957 0002622 323.4731 36.4577 1.70473656 14051

Live tracking and technical data element details for GSAT0212 (GALILEO 16) (NORAD 41860). GSAT0212 (GALILEO 16) can be tracked NOW for your location showing map with azimuth and elevation plus other details from your city location.

Track the satellite on the map from your city or location and see movement details for azimuth, elevation, latitude, longitude, range, height, and movement on the map or in text.







IsCatalogInMostPopularTable: catalog: 41860, numindb: 193
Update: records affected: 1



GetName: 41860 GSAT0212 (GALILEO 16)

Hit Count: updated at: Thu, 21 Feb 2019 11:43:46 GMT